Time,TemperatureF,DewpointF,PressureIn,WindDirection,WindDirectionDegrees,WindSpeedMPH,WindSpeedGustMPH,Humidity,HourlyPrecipIn,Conditions,Clouds,dailyrainin,SoftwareType,DateUTC
2013-02-23 00:00:00,36.0,-99.9,-100.00,West,266,18.0,28.0,-999,-99.99,,,-99.99,,2013-02-23 07:00:00,
2013-02-23 00:32:00,36.0,-99.9,-100.00,West,266,18.0,28.0,-999,-99.99,,,-99.99,,2013-02-23 07:32:00,
2013-02-23 00:42:00,36.0,-99.9,-100.00,West,266,18.0,28.0,-999,-99.99,,,-99.99,,2013-02-23 07:42:00,
2013-02-23 00:52:00,36.0,-99.9,-100.00,West,266,18.0,28.0,-999,-99.99,,,-99.99,,2013-02-23 07:52:00,
2013-02-23 01:00:00,36.0,-99.9,-100.00,West,279,22.0,31.0,-999,-99.99,,,-99.99,,2013-02-23 08:00:00,
2013-02-23 01:32:00,36.0,-99.9,-100.00,West,279,22.0,31.0,-999,-99.99,,,-99.99,,2013-02-23 08:32:00,
2013-02-23 01:42:00,36.0,-99.9,-100.00,West,279,22.0,31.0,-999,-99.99,,,-99.99,,2013-02-23 08:42:00,
2013-02-23 01:53:00,36.0,-99.9,-100.00,West,279,22.0,31.0,-999,-99.99,,,-99.99,,2013-02-23 08:53:00,
2013-02-23 02:00:00,36.0,-99.9,-100.00,West,276,22.0,34.0,-999,-99.99,,,-99.99,,2013-02-23 09:00:00,
2013-02-23 02:32:00,36.0,-99.9,-100.00,West,276,22.0,34.0,-999,-99.99,,,-99.99,,2013-02-23 09:32:00,
2013-02-23 02:42:00,36.0,-99.9,-100.00,West,276,22.0,34.0,-999,-99.99,,,-99.99,,2013-02-23 09:42:00,
2013-02-23 02:52:00,36.0,-99.9,-100.00,West,276,22.0,34.0,-999,-99.99,,,-99.99,,2013-02-23 09:52:00,
2013-02-23 03:00:00,37.0,-99.9,-100.00,West,270,30.0,40.0,-999,-99.99,,,-99.99,,2013-02-23 10:00:00,
2013-02-23 03:32:00,37.0,-99.9,-100.00,West,270,30.0,40.0,-999,-99.99,,,-99.99,,2013-02-23 10:32:00,
2013-02-23 03:42:00,37.0,-99.9,-100.00,West,270,30.0,40.0,-999,-99.99,,,-99.99,,2013-02-23 10:42:00,
2013-02-23 03:52:00,37.0,-99.9,-100.00,West,270,30.0,40.0,-999,-99.99,,,-99.99,,2013-02-23 10:52:00,
2013-02-23 04:00:00,37.0,-99.9,-100.00,WSW,254,19.0,27.0,-999,-99.99,,,-99.99,,2013-02-23 11:00:00,
2013-02-23 04:32:00,37.0,-99.9,-100.00,WSW,254,19.0,27.0,-999,-99.99,,,-99.99,,2013-02-23 11:32:00,
2013-02-23 04:42:00,37.0,-99.9,-100.00,WSW,254,19.0,27.0,-999,-99.99,,,-99.99,,2013-02-23 11:42:00,
2013-02-23 04:53:00,37.0,-99.9,-100.00,WSW,254,19.0,27.0,-999,-99.99,,,-99.99,,2013-02-23 11:53:00,
2013-02-23 05:00:00,37.0,-99.9,-100.00,WNW,290,26.0,34.0,-999,-99.99,,,-99.99,,2013-02-23 12:00:00,
2013-02-23 05:32:00,37.0,-99.9,-100.00,WNW,290,26.0,34.0,-999,-99.99,,,-99.99,,2013-02-23 12:32:00,
2013-02-23 05:42:00,37.0,-99.9,-100.00,WNW,290,26.0,34.0,-999,-99.99,,,-99.99,,2013-02-23 12:42:00,
2013-02-23 05:53:00,37.0,-99.9,-100.00,WNW,290,26.0,34.0,-999,-99.99,,,-99.99,,2013-02-23 12:53:00,
2013-02-23 06:00:00,37.0,-99.9,-100.00,West,281,23.0,35.0,-999,-99.99,,,-99.99,,2013-02-23 13:00:00,
2013-02-23 06:32:00,37.0,-99.9,-100.00,West,281,23.0,35.0,-999,-99.99,,,-99.99,,2013-02-23 13:32:00,
2013-02-23 06:42:00,37.0,-99.9,-100.00,West,281,23.0,35.0,-999,-99.99,,,-99.99,,2013-02-23 13:42:00,
2013-02-23 06:52:00,37.0,-99.9,-100.00,West,281,23.0,35.0,-999,-99.99,,,-99.99,,2013-02-23 13:52:00,
2013-02-23 07:00:00,37.0,-99.9,-100.00,WNW,300,10.0,14.0,-999,-99.99,,,-99.99,,2013-02-23 14:00:00,
2013-02-23 07:33:00,37.0,-99.9,-100.00,WNW,300,10.0,14.0,-999,-99.99,,,-99.99,,2013-02-23 14:33:00,
2013-02-23 07:42:00,37.0,-99.9,-100.00,WNW,300,10.0,14.0,-999,-99.99,,,-99.99,,2013-02-23 14:42:00,
2013-02-23 07:52:00,37.0,-99.9,-100.00,WNW,300,10.0,14.0,-999,-99.99,,,-99.99,,2013-02-23 14:52:00,
2013-02-23 08:00:00,36.0,-99.9,-100.00,WSW,237,14.0,20.0,-999,-99.99,,,-99.99,,2013-02-23 15:00:00,
2013-02-23 08:32:00,36.0,-99.9,-100.00,WSW,237,14.0,20.0,-999,-99.99,,,-99.99,,2013-02-23 15:32:00,
2013-02-23 08:42:00,36.0,-99.9,-100.00,WSW,237,14.0,20.0,-999,-99.99,,,-99.99,,2013-02-23 15:42:00,
2013-02-23 08:52:00,36.0,-99.9,-100.00,WSW,237,14.0,20.0,-999,-99.99,,,-99.99,,2013-02-23 15:52:00,
2013-02-23 09:00:00,27.0,-99.9,-100.00,South,176,2.0,4.0,-999,-99.99,,,-99.99,,2013-02-23 16:00:00,
2013-02-23 09:32:00,27.0,-99.9,-100.00,South,176,2.0,4.0,-999,-99.99,,,-99.99,,2013-02-23 16:32:00,
2013-02-23 09:42:00,27.0,-99.9,-100.00,South,176,2.0,4.0,-999,-99.99,,,-99.99,,2013-02-23 16:42:00,
2013-02-23 09:52:00,27.0,-99.9,-100.00,South,176,2.0,4.0,-999,-99.99,,,-99.99,,2013-02-23 16:52:00,
2013-02-23 10:00:00,28.0,-99.9,-100.00,NE,38,1.0,4.0,-999,-99.99,,,-99.99,,2013-02-23 17:00:00,
2013-02-23 10:32:00,28.0,-99.9,-100.00,NE,38,1.0,4.0,-999,-99.99,,,-99.99,,2013-02-23 17:32:00,
2013-02-23 10:42:00,28.0,-99.9,-100.00,NE,38,1.0,4.0,-999,-99.99,,,-99.99,,2013-02-23 17:42:00,
2013-02-23 10:52:00,28.0,-99.9,-100.00,NE,38,1.0,4.0,-999,-99.99,,,-99.99,,2013-02-23 17:52:00,
2013-02-23 11:00:00,30.0,-99.9,-100.00,NNE,19,6.0,7.0,-999,-99.99,,,-99.99,,2013-02-23 18:00:00,
2013-02-23 11:32:00,30.0,-99.9,-100.00,NNE,19,6.0,7.0,-999,-99.99,,,-99.99,,2013-02-23 18:32:00,
2013-02-23 11:42:00,30.0,-99.9,-100.00,NNE,19,6.0,7.0,-999,-99.99,,,-99.99,,2013-02-23 18:42:00,
2013-02-23 11:52:00,30.0,-99.9,-100.00,NNE,19,6.0,7.0,-999,-99.99,,,-99.99,,2013-02-23 18:52:00,
2013-02-23 12:00:00,33.0,-99.9,-100.00,North,353,8.0,12.0,-999,-99.99,,,-99.99,,2013-02-23 19:00:00,
2013-02-23 12:32:00,33.0,-99.9,-100.00,North,353,8.0,12.0,-999,-99.99,,,-99.99,,2013-02-23 19:32:00,
2013-02-23 12:42:00,33.0,-99.9,-100.00,North,353,8.0,12.0,-999,-99.99,,,-99.99,,2013-02-23 19:42:00,
2013-02-23 12:52:00,33.0,-99.9,-100.00,North,353,8.0,12.0,-999,-99.99,,,-99.99,,2013-02-23 19:52:00,
2013-02-23 13:00:00,31.0,-99.9,-100.00,NNW,344,7.0,10.0,-999,-99.99,,,-99.99,,2013-02-23 20:00:00,
2013-02-23 13:32:00,31.0,-99.9,-100.00,NNW,344,7.0,10.0,-999,-99.99,,,-99.99,,2013-02-23 20:32:00,
2013-02-23 13:42:00,31.0,-99.9,-100.00,NNW,344,7.0,10.0,-999,-99.99,,,-99.99,,2013-02-23 20:42:00,
2013-02-23 13:53:00,31.0,-99.9,-100.00,NNW,344,7.0,10.0,-999,-99.99,,,-99.99,,2013-02-23 20:53:00,
2013-02-23 14:00:00,29.0,-99.9,-100.00,NNE,21,6.0,9.0,-999,-99.99,,,-99.99,,2013-02-23 21:00:00,
2013-02-23 14:32:00,29.0,-99.9,-100.00,NNE,21,6.0,9.0,-999,-99.99,,,-99.99,,2013-02-23 21:32:00,
2013-02-23 14:42:00,29.0,-99.9,-100.00,NNE,21,6.0,9.0,-999,-99.99,,,-99.99,,2013-02-23 21:42:00,
2013-02-23 14:52:00,29.0,-99.9,-100.00,NNE,21,6.0,9.0,-999,-99.99,,,-99.99,,2013-02-23 21:52:00,
2013-02-23 15:00:00,30.0,-99.9,-100.00,North,6,2.0,3.0,-999,-99.99,,,-99.99,,2013-02-23 22:00:00,
2013-02-23 15:32:00,30.0,-99.9,-100.00,North,6,2.0,3.0,-999,-99.99,,,-99.99,,2013-02-23 22:32:00,
2013-02-23 15:42:00,30.0,-99.9,-100.00,North,6,2.0,3.0,-999,-99.99,,,-99.99,,2013-02-23 22:42:00,
2013-02-23 15:52:00,30.0,-99.9,-100.00,North,6,2.0,3.0,-999,-99.99,,,-99.99,,2013-02-23 22:52:00,
2013-02-23 16:00:00,31.0,-99.9,-100.00,West,280,1.0,2.0,-999,-99.99,,,-99.99,,2013-02-23 23:00:00,
2013-02-23 16:32:00,31.0,-99.9,-100.00,West,280,1.0,2.0,-999,-99.99,,,-99.99,,2013-02-23 23:32:00,
2013-02-23 16:42:00,31.0,-99.9,-100.00,West,280,1.0,2.0,-999,-99.99,,,-99.99,,2013-02-23 23:42:00,
2013-02-23 16:52:00,31.0,-99.9,-100.00,West,280,1.0,2.0,-999,-99.99,,,-99.99,,2013-02-23 23:52:00,
2013-02-23 17:00:00,30.0,-99.9,-100.00,ENE,73,0.0,2.0,-999,-99.99,,,-99.99,,2013-02-24 00:00:00,
2013-02-23 17:32:00,30.0,-99.9,-100.00,ENE,73,0.0,2.0,-999,-99.99,,,-99.99,,2013-02-24 00:32:00,
2013-02-23 17:42:00,30.0,-99.9,-100.00,ENE,73,0.0,2.0,-999,-99.99,,,-99.99,,2013-02-24 00:42:00,
2013-02-23 17:52:00,30.0,-99.9,-100.00,ENE,73,0.0,2.0,-999,-99.99,,,-99.99,,2013-02-24 00:52:00,
2013-02-23 18:00:00,29.0,-99.9,-100.00,SSE,154,2.0,3.0,-999,-99.99,,,-99.99,,2013-02-24 01:00:00,
2013-02-23 18:32:00,29.0,-99.9,-100.00,SSE,154,2.0,3.0,-999,-99.99,,,-99.99,,2013-02-24 01:32:00,
2013-02-23 18:42:00,29.0,-99.9,-100.00,SSE,154,2.0,3.0,-999,-99.99,,,-99.99,,2013-02-24 01:42:00,
2013-02-23 18:52:00,29.0,-99.9,-100.00,SSE,154,2.0,3.0,-999,-99.99,,,-99.99,,2013-02-24 01:52:00,
2013-02-23 19:00:00,29.0,-99.9,-100.00,NNE,31,12.0,16.0,-999,-99.99,,,-99.99,,2013-02-24 02:00:00,
2013-02-23 19:32:00,29.0,-99.9,-100.00,NNE,31,12.0,16.0,-999,-99.99,,,-99.99,,2013-02-24 02:32:00,
2013-02-23 19:42:00,29.0,-99.9,-100.00,NNE,31,12.0,16.0,-999,-99.99,,,-99.99,,2013-02-24 02:42:00,
2013-02-23 19:52:00,29.0,-99.9,-100.00,NNE,31,12.0,16.0,-999,-99.99,,,-99.99,,2013-02-24 02:52:00,
2013-02-23 20:00:00,29.0,-99.9,-100.00,NE,44,9.0,13.0,-999,-99.99,,,-99.99,,2013-02-24 03:00:00,
2013-02-23 20:32:00,29.0,-99.9,-100.00,NE,44,9.0,13.0,-999,-99.99,,,-99.99,,2013-02-24 03:32:00,
2013-02-23 20:42:00,29.0,-99.9,-100.00,NE,44,9.0,13.0,-999,-99.99,,,-99.99,,2013-02-24 03:42:00,
2013-02-23 20:52:00,29.0,-99.9,-100.00,NE,44,9.0,13.0,-999,-99.99,,,-99.99,,2013-02-24 03:52:00,
2013-02-23 21:00:00,29.0,-99.9,-100.00,NNE,30,7.0,9.0,-999,-99.99,,,-99.99,,2013-02-24 04:00:00,
2013-02-23 21:32:00,29.0,-99.9,-100.00,NNE,30,7.0,9.0,-999,-99.99,,,-99.99,,2013-02-24 04:32:00,
2013-02-23 21:42:00,29.0,-99.9,-100.00,NNE,30,7.0,9.0,-999,-99.99,,,-99.99,,2013-02-24 04:42:00,
2013-02-23 21:52:00,29.0,-99.9,-100.00,NNE,30,7.0,9.0,-999,-99.99,,,-99.99,,2013-02-24 04:52:00,
2013-02-23 22:00:00,29.0,-99.9,-100.00,SW,236,8.0,10.0,-999,-99.99,,,-99.99,,2013-02-24 05:00:00,
2013-02-23 22:32:00,29.0,-99.9,-100.00,SW,236,8.0,10.0,-999,-99.99,,,-99.99,,2013-02-24 05:32:00,
2013-02-23 22:42:00,29.0,-99.9,-100.00,SW,236,8.0,10.0,-999,-99.99,,,-99.99,,2013-02-24 05:42:00,
2013-02-23 22:52:00,29.0,-99.9,-100.00,SW,236,8.0,10.0,-999,-99.99,,,-99.99,,2013-02-24 05:52:00,
2013-02-23 23:00:00,28.0,-99.9,-100.00,WSW,258,5.0,7.0,-999,-99.99,,,-99.99,,2013-02-24 06:00:00,
2013-02-23 23:32:00,28.0,-99.9,-100.00,WSW,258,5.0,7.0,-999,-99.99,,,-99.99,,2013-02-24 06:32:00,
2013-02-23 23:42:00,28.0,-99.9,-100.00,WSW,258,5.0,7.0,-999,-99.99,,,-99.99,,2013-02-24 06:42:00,
2013-02-23 23:52:00,28.0,-99.9,-100.00,WSW,258,5.0,7.0,-999,-99.99,,,-99.99,,2013-02-24 06:52:00,